<?xml version="1.0" encoding="UTF-8" standalone="yes"?>
<gpx xmlns="http://www.topografix.com/GPX/1/1" version="1.1">
  <trk>
 <name>01A</name>
 <desc>01A</desc>
<trkseg>
<trkpt lat="45.7152100" lon="8.3565800">
<time>2017-08-08T14:24:24.760Z</time>
</trkpt>
<trkpt lat="45.7150700" lon="8.3567100">
<time>2017-08-08T14:24:24.760Z</time>
</trkpt>
<trkpt lat="45.7149000" lon="8.3562000">
<time>2017-08-08T14:24:24.760Z</time>
</trkpt>
<trkpt lat="45.7146200" lon="8.3559400">
<time>2017-08-08T14:24:24.760Z</time>
</trkpt>
<trkpt lat="45.7145400" lon="8.3559100">
<time>2017-08-08T14:24:24.760Z</time>
</trkpt>
<trkpt lat="45.7143800" lon="8.3559000">
<time>2017-08-08T14:24:24.760Z</time>
</trkpt>
<trkpt lat="45.7136900" lon="8.3557700">
<time>2017-08-08T14:24:24.760Z</time>
</trkpt>
<trkpt lat="45.7133200" lon="8.3557500">
<time>2017-08-08T14:24:24.761Z</time>
</trkpt>
<trkpt lat="45.7130500" lon="8.3557500">
<time>2017-08-08T14:24:24.761Z</time>
</trkpt>
<trkpt lat="45.7127400" lon="8.3556600">
<time>2017-08-08T14:24:24.761Z</time>
</trkpt>
<trkpt lat="45.7126000" lon="8.3554500">
<time>2017-08-08T14:24:24.761Z</time>
</trkpt>
<trkpt lat="45.7124300" lon="8.3551000">
<time>2017-08-08T14:24:24.761Z</time>
</trkpt>
<trkpt lat="45.7124000" lon="8.3549600">
<time>2017-08-08T14:24:24.761Z</time>
</trkpt>
<trkpt lat="45.7123600" lon="8.3547900">
<time>2017-08-08T14:24:24.761Z</time>
</trkpt>
<trkpt lat="45.7124500" lon="8.3540500">
<time>2017-08-08T14:24:24.761Z</time>
</trkpt>
<trkpt lat="45.7125000" lon="8.3539400">
<time>2017-08-08T14:24:24.761Z</time>
</trkpt>
<trkpt lat="45.7127300" lon="8.3535100">
<time>2017-08-08T14:24:24.761Z</time>
</trkpt>
<trkpt lat="45.7127500" lon="8.3534700">
<time>2017-08-08T14:24:24.762Z</time>
</trkpt>
<trkpt lat="45.7128300" lon="8.3532600">
<time>2017-08-08T14:24:24.762Z</time>
</trkpt>
<trkpt lat="45.7128500" lon="8.3531100">
<time>2017-08-08T14:24:24.762Z</time>
</trkpt>
<trkpt lat="45.7128700" lon="8.3529800">
<time>2017-08-08T14:24:24.762Z</time>
</trkpt>
<trkpt lat="45.7128300" lon="8.3526300">
<time>2017-08-08T14:24:24.762Z</time>
</trkpt>
<trkpt lat="45.7128100" lon="8.3525800">
<time>2017-08-08T14:24:24.762Z</time>
</trkpt>
<trkpt lat="45.7126700" lon="8.3524800">
<time>2017-08-08T14:24:24.762Z</time>
</trkpt>
<trkpt lat="45.7125000" lon="8.3524400">
<time>2017-08-08T14:24:24.762Z</time>
</trkpt>
<trkpt lat="45.7124200" lon="8.3522600">
<time>2017-08-08T14:24:24.762Z</time>
</trkpt>
<trkpt lat="45.7124100" lon="8.3521600">
<time>2017-08-08T14:24:24.762Z</time>
</trkpt>
<trkpt lat="45.7124000" lon="8.3516200">
<time>2017-08-08T14:24:24.762Z</time>
</trkpt>
<trkpt lat="45.7122800" lon="8.3514900">
<time>2017-08-08T14:24:24.763Z</time>
</trkpt>
<trkpt lat="45.7121700" lon="8.3514000">
<time>2017-08-08T14:24:24.763Z</time>
</trkpt>
<trkpt lat="45.7120100" lon="8.3508900">
<time>2017-08-08T14:24:24.763Z</time>
</trkpt>
<trkpt lat="45.7119300" lon="8.3500800">
<time>2017-08-08T14:24:24.763Z</time>
</trkpt>
<trkpt lat="45.7119000" lon="8.3499700">
<time>2017-08-08T14:24:24.763Z</time>
</trkpt>
<trkpt lat="45.7118500" lon="8.3497600">
<time>2017-08-08T14:24:24.763Z</time>
</trkpt>
<trkpt lat="45.7118300" lon="8.3496900">
<time>2017-08-08T14:24:24.763Z</time>
</trkpt>
<trkpt lat="45.7118200" lon="8.3496300">
<time>2017-08-08T14:24:24.763Z</time>
</trkpt>
<trkpt lat="45.7117400" lon="8.3493800">
<time>2017-08-08T14:24:24.763Z</time>
</trkpt>
<trkpt lat="45.7116400" lon="8.3489900">
<time>2017-08-08T14:24:24.763Z</time>
</trkpt>
<trkpt lat="45.7115500" lon="8.3486800">
<time>2017-08-08T14:24:24.764Z</time>
</trkpt>
<trkpt lat="45.7115400" lon="8.3479700">
<time>2017-08-08T14:24:24.764Z</time>
</trkpt>
<trkpt lat="45.7115200" lon="8.3472700">
<time>2017-08-08T14:24:24.764Z</time>
</trkpt>
<trkpt lat="45.7112300" lon="8.3463300">
<time>2017-08-08T14:24:24.764Z</time>
</trkpt>
<trkpt lat="45.7111500" lon="8.3460900">
<time>2017-08-08T14:24:24.764Z</time>
</trkpt>
<trkpt lat="45.7111000" lon="8.3459500">
<time>2017-08-08T14:24:24.764Z</time>
</trkpt>
<trkpt lat="45.7109600" lon="8.3455800">
<time>2017-08-08T14:24:24.764Z</time>
</trkpt>
<trkpt lat="45.7109300" lon="8.3455300">
<time>2017-08-08T14:24:24.764Z</time>
</trkpt>
<trkpt lat="45.7106800" lon="8.3452700">
<time>2017-08-08T14:24:24.764Z</time>
</trkpt>
<trkpt lat="45.7102000" lon="8.3448500">
<time>2017-08-08T14:24:24.764Z</time>
</trkpt>
<trkpt lat="45.7101200" lon="8.3448200">
<time>2017-08-08T14:24:24.764Z</time>
</trkpt>
<trkpt lat="45.7100000" lon="8.3446800">
<time>2017-08-08T14:24:24.765Z</time>
</trkpt>
<trkpt lat="45.7099500" lon="8.3446200">
<time>2017-08-08T14:24:24.765Z</time>
</trkpt>
<trkpt lat="45.7099100" lon="8.3445700">
<time>2017-08-08T14:24:24.765Z</time>
</trkpt>
<trkpt lat="45.7099100" lon="8.3443400">
<time>2017-08-08T14:24:24.765Z</time>
</trkpt>
<trkpt lat="45.7099300" lon="8.3441900">
<time>2017-08-08T14:24:24.765Z</time>
</trkpt>
<trkpt lat="45.7099500" lon="8.3441600">
<time>2017-08-08T14:24:24.765Z</time>
</trkpt>
<trkpt lat="45.7099600" lon="8.3441400">
<time>2017-08-08T14:24:24.773Z</time>
</trkpt>
<trkpt lat="45.7099800" lon="8.3440500">
<time>2017-08-08T14:24:24.773Z</time>
</trkpt>
<trkpt lat="45.7100100" lon="8.3438700">
<time>2017-08-08T14:24:24.773Z</time>
</trkpt>
<trkpt lat="45.7100700" lon="8.3437400">
<time>2017-08-08T14:24:24.773Z</time>
</trkpt>
<trkpt lat="45.7101100" lon="8.3436900">
<time>2017-08-08T14:24:24.773Z</time>
</trkpt>
<trkpt lat="45.7101800" lon="8.3435300">
<time>2017-08-08T14:24:24.773Z</time>
</trkpt>
<trkpt lat="45.7102100" lon="8.3434900">
<time>2017-08-08T14:24:24.773Z</time>
</trkpt>
<trkpt lat="45.7103700" lon="8.3433900">
<time>2017-08-08T14:24:24.773Z</time>
</trkpt>
<trkpt lat="45.7104900" lon="8.3432800">
<time>2017-08-08T14:24:24.773Z</time>
</trkpt>
<trkpt lat="45.7105100" lon="8.3431700">
<time>2017-08-08T14:24:24.773Z</time>
</trkpt>
<trkpt lat="45.7105000" lon="8.3431000">
<time>2017-08-08T14:24:24.773Z</time>
</trkpt>
<trkpt lat="45.7104500" lon="8.3430000">
<time>2017-08-08T14:24:24.774Z</time>
</trkpt>
<trkpt lat="45.7104500" lon="8.3429600">
<time>2017-08-08T14:24:24.774Z</time>
</trkpt>
<trkpt lat="45.7104400" lon="8.3428800">
<time>2017-08-08T14:24:24.774Z</time>
</trkpt>
<trkpt lat="45.7104700" lon="8.3426800">
<time>2017-08-08T14:24:24.774Z</time>
</trkpt>
<trkpt lat="45.7104900" lon="8.3426400">
<time>2017-08-08T14:24:24.774Z</time>
</trkpt>
<trkpt lat="45.7105700" lon="8.3425300">
<time>2017-08-08T14:24:24.774Z</time>
</trkpt>
<trkpt lat="45.7106000" lon="8.3424800">
<time>2017-08-08T14:24:24.774Z</time>
</trkpt>
<trkpt lat="45.7106700" lon="8.3424000">
<time>2017-08-08T14:24:24.774Z</time>
</trkpt>
<trkpt lat="45.7107900" lon="8.3422200">
<time>2017-08-08T14:24:24.774Z</time>
</trkpt>
<trkpt lat="45.7109300" lon="8.3420300">
<time>2017-08-08T14:24:24.774Z</time>
</trkpt>
<trkpt lat="45.7109700" lon="8.3419800">
<time>2017-08-08T14:24:24.775Z</time>
</trkpt>
<trkpt lat="45.7110400" lon="8.3418900">
<time>2017-08-08T14:24:24.775Z</time>
</trkpt>
<trkpt lat="45.7111200" lon="8.3417000">
<time>2017-08-08T14:24:24.775Z</time>
</trkpt>
<trkpt lat="45.7111200" lon="8.3416600">
<time>2017-08-08T14:24:24.775Z</time>
</trkpt>
<trkpt lat="45.7111800" lon="8.3414500">
<time>2017-08-08T14:24:24.775Z</time>
</trkpt>
<trkpt lat="45.7111800" lon="8.3413600">
<time>2017-08-08T14:24:24.775Z</time>
</trkpt>
<trkpt lat="45.7111800" lon="8.3411700">
<time>2017-08-08T14:24:24.775Z</time>
</trkpt>
<trkpt lat="45.7111900" lon="8.3411400">
<time>2017-08-08T14:24:24.775Z</time>
</trkpt>
<trkpt lat="45.7111800" lon="8.3408900">
<time>2017-08-08T14:24:24.775Z</time>
</trkpt>
<trkpt lat="45.7111500" lon="8.3407900">
<time>2017-08-08T14:24:24.775Z</time>
</trkpt>
<trkpt lat="45.7111500" lon="8.3407500">
<time>2017-08-08T14:24:24.776Z</time>
</trkpt>
<trkpt lat="45.7111500" lon="8.3406500">
<time>2017-08-08T14:24:24.776Z</time>
</trkpt>
<trkpt lat="45.7111500" lon="8.3405600">
<time>2017-08-08T14:24:24.776Z</time>
</trkpt>
<trkpt lat="45.7111400" lon="8.3405200">
<time>2017-08-08T14:24:24.776Z</time>
</trkpt>
<trkpt lat="45.7111300" lon="8.3404800">
<time>2017-08-08T14:24:24.776Z</time>
</trkpt>
<trkpt lat="45.7110900" lon="8.3403100">
<time>2017-08-08T14:24:24.776Z</time>
</trkpt>
<trkpt lat="45.7110800" lon="8.3401000">
<time>2017-08-08T14:24:24.776Z</time>
</trkpt>
<trkpt lat="45.7110600" lon="8.3399500">
<time>2017-08-08T14:24:24.776Z</time>
</trkpt>
<trkpt lat="45.7110400" lon="8.3399100">
<time>2017-08-08T14:24:24.776Z</time>
</trkpt>
<trkpt lat="45.7108600" lon="8.3397900">
<time>2017-08-08T14:24:24.776Z</time>
</trkpt>
<trkpt lat="45.7107200" lon="8.3396900">
<time>2017-08-08T14:24:24.776Z</time>
</trkpt>
<trkpt lat="45.7106900" lon="8.3396500">
<time>2017-08-08T14:24:24.777Z</time>
</trkpt>
<trkpt lat="45.7106200" lon="8.3394700">
<time>2017-08-08T14:24:24.777Z</time>
</trkpt>
<trkpt lat="45.7106100" lon="8.3393000">
<time>2017-08-08T14:24:24.777Z</time>
</trkpt>
<trkpt lat="45.7105700" lon="8.3390800">
<time>2017-08-08T14:24:24.777Z</time>
</trkpt>
<trkpt lat="45.7105400" lon="8.3389200">
<time>2017-08-08T14:24:24.777Z</time>
</trkpt>
<trkpt lat="45.7105300" lon="8.3387500">
<time>2017-08-08T14:24:24.777Z</time>
</trkpt>
<trkpt lat="45.7105200" lon="8.3386800">
<time>2017-08-08T14:24:24.777Z</time>
</trkpt>
<trkpt lat="45.7103800" lon="8.3385100">
<time>2017-08-08T14:24:24.777Z</time>
</trkpt>
<trkpt lat="45.7102400" lon="8.3384800">
<time>2017-08-08T14:24:24.777Z</time>
</trkpt>
<trkpt lat="45.7100400" lon="8.3385200">
<time>2017-08-08T14:24:24.777Z</time>
</trkpt>
<trkpt lat="45.7099800" lon="8.3383700">
<time>2017-08-08T14:24:24.778Z</time>
</trkpt>
<trkpt lat="45.7099700" lon="8.3383400">
<time>2017-08-08T14:24:24.778Z</time>
</trkpt>
<trkpt lat="45.7099600" lon="8.3381600">
<time>2017-08-08T14:24:24.778Z</time>
</trkpt>
<trkpt lat="45.7099100" lon="8.3380200">
<time>2017-08-08T14:24:24.778Z</time>
</trkpt>
<trkpt lat="45.7098200" lon="8.3379700">
<time>2017-08-08T14:24:24.778Z</time>
</trkpt>
<trkpt lat="45.7097400" lon="8.3379400">
<time>2017-08-08T14:24:24.778Z</time>
</trkpt>
<trkpt lat="45.7096900" lon="8.3378100">
<time>2017-08-08T14:24:24.778Z</time>
</trkpt>
<trkpt lat="45.7097100" lon="8.3377200">
<time>2017-08-08T14:24:24.778Z</time>
</trkpt>
<trkpt lat="45.7097100" lon="8.3376700">
<time>2017-08-08T14:24:24.778Z</time>
</trkpt>
<trkpt lat="45.7097000" lon="8.3375900">
<time>2017-08-08T14:24:24.778Z</time>
</trkpt>
<trkpt lat="45.7097300" lon="8.3375100">
<time>2017-08-08T14:24:24.778Z</time>
</trkpt>
<trkpt lat="45.7097700" lon="8.3374100">
<time>2017-08-08T14:24:24.779Z</time>
</trkpt>
<trkpt lat="45.7098100" lon="8.3373400">
<time>2017-08-08T14:24:24.779Z</time>
</trkpt>
<trkpt lat="45.7098300" lon="8.3373400">
<time>2017-08-08T14:24:24.779Z</time>
</trkpt>
<trkpt lat="45.7098700" lon="8.3373200">
<time>2017-08-08T14:24:24.779Z</time>
</trkpt>
<trkpt lat="45.7100100" lon="8.3372500">
<time>2017-08-08T14:24:24.779Z</time>
</trkpt>
<trkpt lat="45.7101500" lon="8.3372100">
<time>2017-08-08T14:24:24.779Z</time>
</trkpt>
<trkpt lat="45.7103200" lon="8.3371000">
<time>2017-08-08T14:24:24.779Z</time>
</trkpt>
<trkpt lat="45.7104300" lon="8.3370400">
<time>2017-08-08T14:24:24.779Z</time>
</trkpt>
<trkpt lat="45.7104600" lon="8.3370400">
<time>2017-08-08T14:24:24.779Z</time>
</trkpt>
<trkpt lat="45.7105900" lon="8.3369200">
<time>2017-08-08T14:24:24.780Z</time>
</trkpt>
<trkpt lat="45.7106000" lon="8.3368800">
<time>2017-08-08T14:24:24.780Z</time>
</trkpt>
<trkpt lat="45.7106800" lon="8.3367400">
<time>2017-08-08T14:24:24.780Z</time>
</trkpt>
<trkpt lat="45.7107100" lon="8.3366400">
<time>2017-08-08T14:24:24.780Z</time>
</trkpt>
<trkpt lat="45.7107600" lon="8.3366000">
<time>2017-08-08T14:24:24.780Z</time>
</trkpt>
<trkpt lat="45.7108500" lon="8.3365400">
<time>2017-08-08T14:24:24.780Z</time>
</trkpt>
<trkpt lat="45.7109300" lon="8.3364900">
<time>2017-08-08T14:24:24.780Z</time>
</trkpt>
<trkpt lat="45.7109700" lon="8.3364500">
<time>2017-08-08T14:24:24.780Z</time>
</trkpt>
<trkpt lat="45.7111000" lon="8.3363100">
<time>2017-08-08T14:24:24.780Z</time>
</trkpt>
<trkpt lat="45.7112000" lon="8.3362100">
<time>2017-08-08T14:24:24.780Z</time>
</trkpt>
<trkpt lat="45.7113000" lon="8.3361600">
<time>2017-08-08T14:24:24.781Z</time>
</trkpt>
<trkpt lat="45.7113300" lon="8.3362500">
<time>2017-08-08T14:24:24.781Z</time>
</trkpt>
<trkpt lat="45.7113700" lon="8.3363500">
<time>2017-08-08T14:24:24.781Z</time>
</trkpt>
<trkpt lat="45.7113800" lon="8.3365200">
<time>2017-08-08T14:24:24.781Z</time>
</trkpt>
<trkpt lat="45.7114200" lon="8.3366500">
<time>2017-08-08T14:24:24.781Z</time>
</trkpt>
<trkpt lat="45.7114800" lon="8.3366500">
<time>2017-08-08T14:24:24.781Z</time>
</trkpt>
<trkpt lat="45.7115300" lon="8.3364800">
<time>2017-08-08T14:24:24.781Z</time>
</trkpt>
<trkpt lat="45.7115400" lon="8.3363900">
<time>2017-08-08T14:24:24.781Z</time>
</trkpt>
<trkpt lat="45.7115200" lon="8.3363000">
<time>2017-08-08T14:24:24.781Z</time>
</trkpt>
<trkpt lat="45.7115200" lon="8.3361700">
<time>2017-08-08T14:24:24.781Z</time>
</trkpt>
<trkpt lat="45.7115200" lon="8.3359300">
<time>2017-08-08T14:24:24.781Z</time>
</trkpt>
<trkpt lat="45.7115100" lon="8.3357800">
<time>2017-08-08T14:24:24.782Z</time>
</trkpt>
<trkpt lat="45.7115100" lon="8.3356600">
<time>2017-08-08T14:24:24.782Z</time>
</trkpt>
<trkpt lat="45.7113500" lon="8.3356900">
<time>2017-08-08T14:24:24.782Z</time>
</trkpt>
<trkpt lat="45.7111800" lon="8.3357100">
<time>2017-08-08T14:24:24.782Z</time>
</trkpt>
<trkpt lat="45.7109900" lon="8.3357900">
<time>2017-08-08T14:24:24.782Z</time>
</trkpt>
<trkpt lat="45.7108900" lon="8.3358100">
<time>2017-08-08T14:24:24.782Z</time>
</trkpt>
<trkpt lat="45.7108400" lon="8.3358600">
<time>2017-08-08T14:24:24.782Z</time>
</trkpt>
<trkpt lat="45.7107600" lon="8.3359400">
<time>2017-08-08T14:24:24.782Z</time>
</trkpt>
<trkpt lat="45.7106700" lon="8.3360900">
<time>2017-08-08T14:24:24.783Z</time>
</trkpt>
<trkpt lat="45.7106100" lon="8.3361300">
<time>2017-08-08T14:24:24.783Z</time>
</trkpt>
<trkpt lat="45.7105200" lon="8.3361800">
<time>2017-08-08T14:24:24.783Z</time>
</trkpt>
<trkpt lat="45.7103900" lon="8.3362400">
<time>2017-08-08T14:24:24.783Z</time>
</trkpt>
<trkpt lat="45.7103600" lon="8.3362900">
<time>2017-08-08T14:24:24.783Z</time>
</trkpt>
<trkpt lat="45.7102300" lon="8.3364200">
<time>2017-08-08T14:24:24.783Z</time>
</trkpt>
<trkpt lat="45.7101700" lon="8.3364400">
<time>2017-08-08T14:24:24.783Z</time>
</trkpt>
<trkpt lat="45.7101200" lon="8.3364000">
<time>2017-08-08T14:24:24.783Z</time>
</trkpt>
<trkpt lat="45.7099800" lon="8.3361700">
<time>2017-08-08T14:24:24.783Z</time>
</trkpt>
<trkpt lat="45.7098200" lon="8.3360300">
<time>2017-08-08T14:24:24.783Z</time>
</trkpt>
<trkpt lat="45.7096100" lon="8.3360700">
<time>2017-08-08T14:24:24.784Z</time>
</trkpt>
<trkpt lat="45.7094600" lon="8.3362100">
<time>2017-08-08T14:24:24.784Z</time>
</trkpt>
<trkpt lat="45.7092800" lon="8.3363100">
<time>2017-08-08T14:24:24.784Z</time>
</trkpt>
<trkpt lat="45.7091300" lon="8.3363000">
<time>2017-08-08T14:24:24.784Z</time>
</trkpt>
<trkpt lat="45.7089900" lon="8.3362900">
<time>2017-08-08T14:24:24.784Z</time>
</trkpt>
<trkpt lat="45.7088100" lon="8.3363600">
<time>2017-08-08T14:24:24.784Z</time>
</trkpt>
<trkpt lat="45.7087300" lon="8.3364400">
<time>2017-08-08T14:24:24.784Z</time>
</trkpt>
<trkpt lat="45.7086600" lon="8.3367200">
<time>2017-08-08T14:24:24.784Z</time>
</trkpt>
<trkpt lat="45.7086500" lon="8.3368200">
<time>2017-08-08T14:24:24.784Z</time>
</trkpt>
<trkpt lat="45.7086400" lon="8.3369500">
<time>2017-08-08T14:24:24.784Z</time>
</trkpt>
<trkpt lat="45.7086700" lon="8.3371800">
<time>2017-08-08T14:24:24.784Z</time>
</trkpt>
<trkpt lat="45.7086300" lon="8.3372700">
<time>2017-08-08T14:24:24.785Z</time>
</trkpt>
<trkpt lat="45.7085200" lon="8.3373400">
<time>2017-08-08T14:24:24.785Z</time>
</trkpt>
<trkpt lat="45.7083600" lon="8.3374700">
<time>2017-08-08T14:24:24.785Z</time>
</trkpt>
<trkpt lat="45.7083200" lon="8.3375000">
<time>2017-08-08T14:24:24.785Z</time>
</trkpt>
<trkpt lat="45.7081300" lon="8.3375300">
<time>2017-08-08T14:24:24.785Z</time>
</trkpt>
<trkpt lat="45.7080000" lon="8.3375500">
<time>2017-08-08T14:24:24.785Z</time>
</trkpt>
<trkpt lat="45.7078700" lon="8.3375200">
<time>2017-08-08T14:24:24.785Z</time>
</trkpt>
<trkpt lat="45.7077400" lon="8.3375600">
<time>2017-08-08T14:24:24.785Z</time>
</trkpt>
<trkpt lat="45.7076800" lon="8.3375900">
<time>2017-08-08T14:24:24.785Z</time>
</trkpt>
<trkpt lat="45.7076200" lon="8.3374400">
<time>2017-08-08T14:24:24.785Z</time>
</trkpt>
<trkpt lat="45.7075000" lon="8.3372300">
<time>2017-08-08T14:24:24.786Z</time>
</trkpt>
<trkpt lat="45.7074100" lon="8.3370200">
<time>2017-08-08T14:24:24.786Z</time>
</trkpt>
<trkpt lat="45.7073500" lon="8.3367000">
<time>2017-08-08T14:24:24.786Z</time>
</trkpt>
<trkpt lat="45.7072800" lon="8.3365800">
<time>2017-08-08T14:24:24.786Z</time>
</trkpt>
<trkpt lat="45.7072200" lon="8.3363700">
<time>2017-08-08T14:24:24.786Z</time>
</trkpt>
<trkpt lat="45.7072000" lon="8.3360400">
<time>2017-08-08T14:24:24.786Z</time>
</trkpt>
<trkpt lat="45.7071000" lon="8.3360100">
<time>2017-08-08T14:24:24.786Z</time>
</trkpt>
<trkpt lat="45.7068900" lon="8.3358700">
<time>2017-08-08T14:24:24.786Z</time>
</trkpt>
<trkpt lat="45.7068400" lon="8.3356900">
<time>2017-08-08T14:24:24.786Z</time>
</trkpt>
<trkpt lat="45.7067800" lon="8.3356100">
<time>2017-08-08T14:24:24.786Z</time>
</trkpt>
<trkpt lat="45.7066500" lon="8.3354000">
<time>2017-08-08T14:24:24.786Z</time>
</trkpt>
<trkpt lat="45.7065900" lon="8.3352800">
<time>2017-08-08T14:24:24.787Z</time>
</trkpt>
<trkpt lat="45.7065800" lon="8.3352500">
<time>2017-08-08T14:24:24.787Z</time>
</trkpt>
<trkpt lat="45.7066000" lon="8.3351500">
<time>2017-08-08T14:24:24.787Z</time>
</trkpt>
<trkpt lat="45.7065100" lon="8.3351000">
<time>2017-08-08T14:24:24.787Z</time>
</trkpt>
<trkpt lat="45.7063500" lon="8.3350400">
<time>2017-08-08T14:24:24.787Z</time>
</trkpt>
<trkpt lat="45.7063300" lon="8.3349700">
<time>2017-08-08T14:24:24.787Z</time>
</trkpt>
<trkpt lat="45.7063700" lon="8.3349300">
<time>2017-08-08T14:24:24.787Z</time>
</trkpt>
<trkpt lat="45.7064500" lon="8.3347600">
<time>2017-08-08T14:24:24.787Z</time>
</trkpt>
<trkpt lat="45.7063900" lon="8.3345600">
<time>2017-08-08T14:24:24.787Z</time>
</trkpt>
<trkpt lat="45.7062900" lon="8.3346000">
<time>2017-08-08T14:24:24.787Z</time>
</trkpt>
<trkpt lat="45.7062400" lon="8.3345800">
<time>2017-08-08T14:24:24.788Z</time>
</trkpt>
<trkpt lat="45.7061200" lon="8.3346500">
<time>2017-08-08T14:24:24.788Z</time>
</trkpt>
<trkpt lat="45.7059900" lon="8.3347300">
<time>2017-08-08T14:24:24.788Z</time>
</trkpt>
<trkpt lat="45.7058500" lon="8.3347000">
<time>2017-08-08T14:24:24.788Z</time>
</trkpt>
<trkpt lat="45.7057100" lon="8.3346200">
<time>2017-08-08T14:24:24.788Z</time>
</trkpt>
<trkpt lat="45.7056200" lon="8.3344500">
<time>2017-08-08T14:24:24.788Z</time>
</trkpt>
<trkpt lat="45.7055500" lon="8.3343700">
<time>2017-08-08T14:24:24.788Z</time>
</trkpt>
<trkpt lat="45.7054400" lon="8.3344500">
<time>2017-08-08T14:24:24.788Z</time>
</trkpt>
<trkpt lat="45.7054300" lon="8.3344800">
<time>2017-08-08T14:24:24.788Z</time>
</trkpt>
<trkpt lat="45.7053300" lon="8.3346700">
<time>2017-08-08T14:24:24.788Z</time>
</trkpt>
<trkpt lat="45.7052200" lon="8.3347500">
<time>2017-08-08T14:24:24.788Z</time>
</trkpt>
<trkpt lat="45.7051100" lon="8.3346600">
<time>2017-08-08T14:24:24.789Z</time>
</trkpt>
<trkpt lat="45.7049500" lon="8.3345900">
<time>2017-08-08T14:24:24.789Z</time>
</trkpt>
<trkpt lat="45.7048100" lon="8.3346300">
<time>2017-08-08T14:24:24.789Z</time>
</trkpt>
<trkpt lat="45.7047900" lon="8.3347700">
<time>2017-08-08T14:24:24.789Z</time>
</trkpt>
<trkpt lat="45.7048200" lon="8.3349400">
<time>2017-08-08T14:24:24.789Z</time>
</trkpt>
<trkpt lat="45.7048300" lon="8.3350200">
<time>2017-08-08T14:24:24.789Z</time>
</trkpt>
<trkpt lat="45.7049900" lon="8.3352200">
<time>2017-08-08T14:24:24.789Z</time>
</trkpt>
<trkpt lat="45.7051400" lon="8.3353400">
<time>2017-08-08T14:24:24.789Z</time>
</trkpt>
<trkpt lat="45.7052900" lon="8.3354900">
<time>2017-08-08T14:24:24.789Z</time>
</trkpt>
<trkpt lat="45.7054200" lon="8.3355900">
<time>2017-08-08T14:24:24.789Z</time>
</trkpt>
<trkpt lat="45.7053600" lon="8.3356900">
<time>2017-08-08T14:24:24.790Z</time>
</trkpt>
<trkpt lat="45.7052200" lon="8.3357400">
<time>2017-08-08T14:24:24.790Z</time>
</trkpt>
<trkpt lat="45.7051600" lon="8.3357900">
<time>2017-08-08T14:24:24.790Z</time>
</trkpt>
<trkpt lat="45.7049800" lon="8.3358600">
<time>2017-08-08T14:24:24.790Z</time>
</trkpt>
<trkpt lat="45.7048800" lon="8.3358600">
<time>2017-08-08T14:24:24.790Z</time>
</trkpt>
<trkpt lat="45.7047600" lon="8.3357600">
<time>2017-08-08T14:24:24.790Z</time>
</trkpt>
<trkpt lat="45.7045400" lon="8.3354900">
<time>2017-08-08T14:24:24.790Z</time>
</trkpt>
<trkpt lat="45.7043500" lon="8.3355900">
<time>2017-08-08T14:24:24.790Z</time>
</trkpt>
<trkpt lat="45.7042200" lon="8.3357400">
<time>2017-08-08T14:24:24.790Z</time>
</trkpt>
<trkpt lat="45.7041200" lon="8.3355600">
<time>2017-08-08T14:24:24.790Z</time>
</trkpt>
<trkpt lat="45.7041100" lon="8.3355400">
<time>2017-08-08T14:24:24.791Z</time>
</trkpt>
<trkpt lat="45.7040300" lon="8.3353000">
<time>2017-08-08T14:24:24.791Z</time>
</trkpt>
<trkpt lat="45.7038000" lon="8.3348300">
<time>2017-08-08T14:24:24.791Z</time>
</trkpt>
<trkpt lat="45.7036700" lon="8.3346800">
<time>2017-08-08T14:24:24.791Z</time>
</trkpt>
<trkpt lat="45.7035500" lon="8.3347100">
<time>2017-08-08T14:24:24.791Z</time>
</trkpt>
<trkpt lat="45.7035600" lon="8.3345500">
<time>2017-08-08T14:24:24.791Z</time>
</trkpt>
<trkpt lat="45.7036500" lon="8.3344300">
<time>2017-08-08T14:24:24.791Z</time>
</trkpt>
<trkpt lat="45.7034600" lon="8.3343700">
<time>2017-08-08T14:24:24.791Z</time>
</trkpt>
<trkpt lat="45.7033100" lon="8.3341900">
<time>2017-08-08T14:24:24.791Z</time>
</trkpt>
<trkpt lat="45.7032000" lon="8.3339600">
<time>2017-08-08T14:24:24.791Z</time>
</trkpt>
<trkpt lat="45.7032100" lon="8.3338800">
<time>2017-08-08T14:24:24.791Z</time>
</trkpt>
<trkpt lat="45.7031000" lon="8.3337300">
<time>2017-08-08T14:24:24.792Z</time>
</trkpt>
<trkpt lat="45.7029800" lon="8.3336700">
<time>2017-08-08T14:24:24.792Z</time>
</trkpt>
<trkpt lat="45.7027300" lon="8.3335700">
<time>2017-08-08T14:24:24.792Z</time>
</trkpt>
<trkpt lat="45.7026100" lon="8.3333500">
<time>2017-08-08T14:24:24.792Z</time>
</trkpt>
<trkpt lat="45.7025100" lon="8.3331700">
<time>2017-08-08T14:24:24.792Z</time>
</trkpt>
<trkpt lat="45.7023700" lon="8.3330000">
<time>2017-08-08T14:24:24.792Z</time>
</trkpt>
<trkpt lat="45.7023200" lon="8.3328800">
<time>2017-08-08T14:24:24.792Z</time>
</trkpt>
<trkpt lat="45.7023200" lon="8.3327500">
<time>2017-08-08T14:24:24.792Z</time>
</trkpt>
<trkpt lat="45.7022800" lon="8.3325500">
<time>2017-08-08T14:24:24.793Z</time>
</trkpt>
<trkpt lat="45.7022400" lon="8.3323800">
<time>2017-08-08T14:24:24.793Z</time>
</trkpt>
<trkpt lat="45.7021200" lon="8.3322800">
<time>2017-08-08T14:24:24.793Z</time>
</trkpt>
<trkpt lat="45.7020200" lon="8.3322800">
<time>2017-08-08T14:24:24.793Z</time>
</trkpt>
<trkpt lat="45.7019900" lon="8.3322900">
<time>2017-08-08T14:24:24.793Z</time>
</trkpt>
<trkpt lat="45.7018600" lon="8.3323300">
<time>2017-08-08T14:24:24.793Z</time>
</trkpt>
<trkpt lat="45.7016700" lon="8.3324400">
<time>2017-08-08T14:24:24.793Z</time>
</trkpt>
<trkpt lat="45.7016000" lon="8.3325600">
<time>2017-08-08T14:24:24.793Z</time>
</trkpt>
<trkpt lat="45.7014400" lon="8.3328800">
<time>2017-08-08T14:24:24.793Z</time>
</trkpt>
<trkpt lat="45.7013500" lon="8.3328300">
<time>2017-08-08T14:24:24.793Z</time>
</trkpt>
<trkpt lat="45.7011200" lon="8.3326500">
<time>2017-08-08T14:24:24.794Z</time>
</trkpt>
<trkpt lat="45.7009300" lon="8.3325700">
<time>2017-08-08T14:24:24.794Z</time>
</trkpt>
<trkpt lat="45.7009000" lon="8.3325700">
<time>2017-08-08T14:24:24.794Z</time>
</trkpt>
<trkpt lat="45.7007700" lon="8.3324800">
<time>2017-08-08T14:24:24.794Z</time>
</trkpt>
<trkpt lat="45.7007400" lon="8.3324600">
<time>2017-08-08T14:24:24.794Z</time>
</trkpt>
<trkpt lat="45.7006700" lon="8.3324500">
<time>2017-08-08T14:24:24.794Z</time>
</trkpt>
<trkpt lat="45.7005500" lon="8.3324500">
<time>2017-08-08T14:24:24.794Z</time>
</trkpt>
<trkpt lat="45.7004300" lon="8.3325200">
<time>2017-08-08T14:24:24.794Z</time>
</trkpt>
<trkpt lat="45.7001800" lon="8.3325500">
<time>2017-08-08T14:24:24.794Z</time>
</trkpt>
<trkpt lat="45.7001300" lon="8.3325600">
<time>2017-08-08T14:24:24.794Z</time>
</trkpt>
<trkpt lat="45.7000700" lon="8.3325600">
<time>2017-08-08T14:24:24.795Z</time>
</trkpt>
<trkpt lat="45.7000000" lon="8.3326000">
<time>2017-08-08T14:24:24.795Z</time>
</trkpt>
<trkpt lat="45.7000000" lon="8.3326100">
<time>2017-08-08T14:24:24.795Z</time>
</trkpt>
<trkpt lat="45.6999500" lon="8.3327300">
<time>2017-08-08T14:24:24.795Z</time>
</trkpt>
<trkpt lat="45.6998800" lon="8.3328400">
<time>2017-08-08T14:24:24.795Z</time>
</trkpt>
<trkpt lat="45.6997800" lon="8.3329500">
<time>2017-08-08T14:24:24.795Z</time>
</trkpt>
<trkpt lat="45.6997700" lon="8.3329900">
<time>2017-08-08T14:24:24.795Z</time>
</trkpt>
<trkpt lat="45.6997000" lon="8.3331500">
<time>2017-08-08T14:24:24.795Z</time>
</trkpt>
<trkpt lat="45.6996200" lon="8.3332400">
<time>2017-08-08T14:24:24.795Z</time>
</trkpt>
<trkpt lat="45.6995100" lon="8.3332500">
<time>2017-08-08T14:24:24.795Z</time>
</trkpt>
<trkpt lat="45.6994700" lon="8.3333500">
<time>2017-08-08T14:24:24.796Z</time>
</trkpt>
<trkpt lat="45.6993900" lon="8.3338200">
<time>2017-08-08T14:24:24.796Z</time>
</trkpt>
<trkpt lat="45.6993000" lon="8.3339100">
<time>2017-08-08T14:24:24.796Z</time>
</trkpt>
<trkpt lat="45.6992500" lon="8.3339100">
<time>2017-08-08T14:24:24.796Z</time>
</trkpt>
<trkpt lat="45.6992900" lon="8.3337500">
<time>2017-08-08T14:24:24.796Z</time>
</trkpt>
<trkpt lat="45.6992000" lon="8.3336300">
<time>2017-08-08T14:24:24.796Z</time>
</trkpt>
<trkpt lat="45.6991900" lon="8.3336100">
<time>2017-08-08T14:24:24.796Z</time>
</trkpt>
<trkpt lat="45.6989600" lon="8.3335600">
<time>2017-08-08T14:24:24.796Z</time>
</trkpt>
<trkpt lat="45.6988900" lon="8.3334800">
<time>2017-08-08T14:24:24.796Z</time>
</trkpt>
<trkpt lat="45.6987700" lon="8.3333400">
<time>2017-08-08T14:24:24.796Z</time>
</trkpt>
<trkpt lat="45.6987600" lon="8.3331800">
<time>2017-08-08T14:24:24.797Z</time>
</trkpt>
<trkpt lat="45.6987400" lon="8.3330200">
<time>2017-08-08T14:24:24.797Z</time>
</trkpt>
<trkpt lat="45.6987000" lon="8.3329000">
<time>2017-08-08T14:24:24.797Z</time>
</trkpt>
<trkpt lat="45.6986200" lon="8.3328400">
<time>2017-08-08T14:24:24.797Z</time>
</trkpt>
<trkpt lat="45.6984700" lon="8.3328900">
<time>2017-08-08T14:24:24.797Z</time>
</trkpt>
<trkpt lat="45.6984400" lon="8.3329700">
<time>2017-08-08T14:24:24.797Z</time>
</trkpt>
<trkpt lat="45.6983000" lon="8.3331600">
<time>2017-08-08T14:24:24.797Z</time>
</trkpt>
<trkpt lat="45.6982500" lon="8.3332500">
<time>2017-08-08T14:24:24.797Z</time>
</trkpt>
<trkpt lat="45.6980900" lon="8.3333300">
<time>2017-08-08T14:24:24.797Z</time>
</trkpt>
<trkpt lat="45.6979700" lon="8.3333900">
<time>2017-08-08T14:24:24.797Z</time>
</trkpt>
<trkpt lat="45.6977700" lon="8.3334800">
<time>2017-08-08T14:24:24.798Z</time>
</trkpt>
<trkpt lat="45.6977100" lon="8.3335000">
<time>2017-08-08T14:24:24.798Z</time>
</trkpt>
<trkpt lat="45.6977200" lon="8.3335400">
<time>2017-08-08T14:24:24.798Z</time>
</trkpt>
<trkpt lat="45.6977100" lon="8.3335500">
<time>2017-08-08T14:24:24.798Z</time>
</trkpt>
<trkpt lat="45.6977000" lon="8.3336200">
<time>2017-08-08T14:24:24.798Z</time>
</trkpt>
<trkpt lat="45.6977500" lon="8.3337900">
<time>2017-08-08T14:24:24.798Z</time>
</trkpt>
<trkpt lat="45.6978200" lon="8.3339600">
<time>2017-08-08T14:24:24.798Z</time>
</trkpt>
<trkpt lat="45.6978200" lon="8.3340600">
<time>2017-08-08T14:24:24.798Z</time>
</trkpt>
<trkpt lat="45.6978700" lon="8.3342200">
<time>2017-08-08T14:24:24.798Z</time>
</trkpt>
<trkpt lat="45.6979100" lon="8.3343800">
<time>2017-08-08T14:24:24.798Z</time>
</trkpt>
<trkpt lat="45.6978400" lon="8.3344700">
<time>2017-08-08T14:24:24.799Z</time>
</trkpt>
<trkpt lat="45.6976800" lon="8.3344600">
<time>2017-08-08T14:24:24.799Z</time>
</trkpt>
<trkpt lat="45.6976000" lon="8.3344400">
<time>2017-08-08T14:24:24.799Z</time>
</trkpt>
<trkpt lat="45.6973900" lon="8.3344700">
<time>2017-08-08T14:24:24.799Z</time>
</trkpt>
<trkpt lat="45.6972300" lon="8.3345200">
<time>2017-08-08T14:24:24.799Z</time>
</trkpt>
<trkpt lat="45.6970800" lon="8.3346100">
<time>2017-08-08T14:24:24.799Z</time>
</trkpt>
<trkpt lat="45.6969700" lon="8.3347000">
<time>2017-08-08T14:24:24.799Z</time>
</trkpt>
<trkpt lat="45.6969200" lon="8.3347500">
<time>2017-08-08T14:24:24.799Z</time>
</trkpt>
<trkpt lat="45.6967600" lon="8.3348200">
<time>2017-08-08T14:24:24.799Z</time>
</trkpt>
<trkpt lat="45.6967100" lon="8.3350300">
<time>2017-08-08T14:24:24.799Z</time>
</trkpt>
<trkpt lat="45.6966300" lon="8.3351600">
<time>2017-08-08T14:24:24.799Z</time>
</trkpt>
<trkpt lat="45.6965200" lon="8.3352500">
<time>2017-08-08T14:24:24.800Z</time>
</trkpt>
<trkpt lat="45.6964100" lon="8.3353500">
<time>2017-08-08T14:24:24.800Z</time>
</trkpt>
<trkpt lat="45.6963000" lon="8.3355600">
<time>2017-08-08T14:24:24.800Z</time>
</trkpt>
<trkpt lat="45.6962000" lon="8.3357500">
<time>2017-08-08T14:24:24.800Z</time>
</trkpt>
<trkpt lat="45.6961400" lon="8.3360200">
<time>2017-08-08T14:24:24.800Z</time>
</trkpt>
<trkpt lat="45.6961300" lon="8.3362400">
<time>2017-08-08T14:24:24.800Z</time>
</trkpt>
<trkpt lat="45.6961300" lon="8.3363700">
<time>2017-08-08T14:24:24.800Z</time>
</trkpt>
<trkpt lat="45.6961000" lon="8.3365100">
<time>2017-08-08T14:24:24.800Z</time>
</trkpt>
<trkpt lat="45.6960700" lon="8.3368200">
<time>2017-08-08T14:24:24.800Z</time>
</trkpt>
<trkpt lat="45.6960500" lon="8.3369200">
<time>2017-08-08T14:24:24.800Z</time>
</trkpt>
<trkpt lat="45.6959200" lon="8.3370100">
<time>2017-08-08T14:24:24.801Z</time>
</trkpt>
<trkpt lat="45.6958100" lon="8.3372200">
<time>2017-08-08T14:24:24.801Z</time>
</trkpt>
<trkpt lat="45.6958000" lon="8.3372300">
<time>2017-08-08T14:24:24.801Z</time>
</trkpt>
<trkpt lat="45.6956700" lon="8.3373600">
<time>2017-08-08T14:24:24.801Z</time>
</trkpt>
<trkpt lat="45.6956100" lon="8.3374300">
<time>2017-08-08T14:24:24.801Z</time>
</trkpt>
<trkpt lat="45.6954700" lon="8.3376200">
<time>2017-08-08T14:24:24.801Z</time>
</trkpt>
<trkpt lat="45.6953500" lon="8.3377300">
<time>2017-08-08T14:24:24.801Z</time>
</trkpt>
<trkpt lat="45.6953900" lon="8.3377700">
<time>2017-08-08T14:24:24.801Z</time>
</trkpt>
<trkpt lat="45.6953700" lon="8.3379300">
<time>2017-08-08T14:24:24.801Z</time>
</trkpt>
<trkpt lat="45.6954100" lon="8.3383900">
<time>2017-08-08T14:24:24.801Z</time>
</trkpt>
<trkpt lat="45.6954300" lon="8.3385400">
<time>2017-08-08T14:24:24.802Z</time>
</trkpt>
<trkpt lat="45.6955100" lon="8.3388600">
<time>2017-08-08T14:24:24.802Z</time>
</trkpt>
<trkpt lat="45.6955500" lon="8.3390000">
<time>2017-08-08T14:24:24.802Z</time>
</trkpt>
<trkpt lat="45.6954400" lon="8.3396300">
<time>2017-08-08T14:24:24.802Z</time>
</trkpt>
<trkpt lat="45.6954400" lon="8.3397100">
<time>2017-08-08T14:24:24.802Z</time>
</trkpt>
<trkpt lat="45.6954400" lon="8.3399600">
<time>2017-08-08T14:24:24.802Z</time>
</trkpt>
<trkpt lat="45.6954400" lon="8.3400200">
<time>2017-08-08T14:24:24.802Z</time>
</trkpt>
<trkpt lat="45.6954300" lon="8.3403500">
<time>2017-08-08T14:24:24.802Z</time>
</trkpt>
<trkpt lat="45.6954100" lon="8.3403800">
<time>2017-08-08T14:24:24.803Z</time>
</trkpt>
<trkpt lat="45.6953800" lon="8.3404000">
<time>2017-08-08T14:24:24.803Z</time>
</trkpt>
<trkpt lat="45.6952600" lon="8.3401400">
<time>2017-08-08T14:24:24.803Z</time>
</trkpt>
<trkpt lat="45.6952500" lon="8.3400800">
<time>2017-08-08T14:24:24.803Z</time>
</trkpt>
<trkpt lat="45.6950800" lon="8.3397200">
<time>2017-08-08T14:24:24.803Z</time>
</trkpt>
<trkpt lat="45.6948600" lon="8.3396500">
<time>2017-08-08T14:24:24.803Z</time>
</trkpt>
<trkpt lat="45.6946700" lon="8.3395800">
<time>2017-08-08T14:24:24.803Z</time>
</trkpt>
<trkpt lat="45.6945400" lon="8.3395200">
<time>2017-08-08T14:24:24.803Z</time>
</trkpt>
<trkpt lat="45.6942500" lon="8.3392100">
<time>2017-08-08T14:24:24.803Z</time>
</trkpt>
<trkpt lat="45.6941600" lon="8.3390600">
<time>2017-08-08T14:24:24.803Z</time>
</trkpt>
<trkpt lat="45.6941600" lon="8.3388300">
<time>2017-08-08T14:24:24.804Z</time>
</trkpt>
<trkpt lat="45.6941600" lon="8.3387000">
<time>2017-08-08T14:24:24.804Z</time>
</trkpt>
<trkpt lat="45.6941100" lon="8.3385800">
<time>2017-08-08T14:24:24.804Z</time>
</trkpt>
<trkpt lat="45.6941000" lon="8.3384300">
<time>2017-08-08T14:24:24.804Z</time>
</trkpt>
<trkpt lat="45.6941400" lon="8.3381800">
<time>2017-08-08T14:24:24.804Z</time>
</trkpt>
<trkpt lat="45.6941000" lon="8.3380800">
<time>2017-08-08T14:24:24.804Z</time>
</trkpt>
<trkpt lat="45.6939200" lon="8.3380600">
<time>2017-08-08T14:24:24.804Z</time>
</trkpt>
<trkpt lat="45.6938200" lon="8.3381500">
<time>2017-08-08T14:24:24.804Z</time>
</trkpt>
<trkpt lat="45.6938700" lon="8.3383500">
<time>2017-08-08T14:24:24.804Z</time>
</trkpt>
<trkpt lat="45.6938900" lon="8.3385200">
<time>2017-08-08T14:24:24.804Z</time>
</trkpt>
<trkpt lat="45.6938600" lon="8.3386700">
<time>2017-08-08T14:24:24.804Z</time>
</trkpt>
<trkpt lat="45.6938300" lon="8.3387100">
<time>2017-08-08T14:24:24.805Z</time>
</trkpt>
<trkpt lat="45.6937500" lon="8.3388700">
<time>2017-08-08T14:24:24.805Z</time>
</trkpt>
<trkpt lat="45.6937000" lon="8.3389600">
<time>2017-08-08T14:24:24.805Z</time>
</trkpt>
<trkpt lat="45.6936800" lon="8.3392900">
<time>2017-08-08T14:24:24.805Z</time>
</trkpt>
<trkpt lat="45.6937600" lon="8.3394900">
<time>2017-08-08T14:24:24.805Z</time>
</trkpt>
<trkpt lat="45.6938200" lon="8.3395900">
<time>2017-08-08T14:24:24.805Z</time>
</trkpt>
<trkpt lat="45.6938800" lon="8.3397400">
<time>2017-08-08T14:24:24.805Z</time>
</trkpt>
<trkpt lat="45.6938800" lon="8.3399500">
<time>2017-08-08T14:24:24.805Z</time>
</trkpt>
<trkpt lat="45.6937500" lon="8.3403600">
<time>2017-08-08T14:24:24.805Z</time>
</trkpt>
<trkpt lat="45.6936800" lon="8.3407800">
<time>2017-08-08T14:24:24.805Z</time>
</trkpt>
<trkpt lat="45.6936000" lon="8.3411600">
<time>2017-08-08T14:24:24.806Z</time>
</trkpt>
<trkpt lat="45.6935500" lon="8.3413500">
<time>2017-08-08T14:24:24.806Z</time>
</trkpt>
<trkpt lat="45.6934300" lon="8.3419000">
<time>2017-08-08T14:24:24.806Z</time>
</trkpt>
<trkpt lat="45.6934000" lon="8.3419500">
<time>2017-08-08T14:24:24.806Z</time>
</trkpt>
<trkpt lat="45.6932400" lon="8.3421300">
<time>2017-08-08T14:24:24.806Z</time>
</trkpt>
<trkpt lat="45.6931300" lon="8.3422100">
<time>2017-08-08T14:24:24.806Z</time>
</trkpt>
<trkpt lat="45.6930600" lon="8.3422400">
<time>2017-08-08T14:24:24.806Z</time>
</trkpt>
<trkpt lat="45.6929600" lon="8.3422600">
<time>2017-08-08T14:24:24.806Z</time>
</trkpt>
<trkpt lat="45.6927500" lon="8.3423000">
<time>2017-08-08T14:24:24.806Z</time>
</trkpt>
<trkpt lat="45.6926700" lon="8.3423100">
<time>2017-08-08T14:24:24.806Z</time>
</trkpt>
<trkpt lat="45.6926700" lon="8.3424200">
<time>2017-08-08T14:24:24.807Z</time>
</trkpt>
<trkpt lat="45.6928100" lon="8.3425900">
<time>2017-08-08T14:24:24.807Z</time>
</trkpt>
<trkpt lat="45.6928700" lon="8.3428000">
<time>2017-08-08T14:24:24.807Z</time>
</trkpt>
<trkpt lat="45.6929200" lon="8.3430700">
<time>2017-08-08T14:24:24.807Z</time>
</trkpt>
<trkpt lat="45.6932400" lon="8.3433400">
<time>2017-08-08T14:24:24.807Z</time>
</trkpt>
<trkpt lat="45.6933700" lon="8.3433700">
<time>2017-08-08T14:24:24.807Z</time>
</trkpt>
<trkpt lat="45.6937400" lon="8.3439500">
<time>2017-08-08T14:24:24.807Z</time>
</trkpt>
<trkpt lat="45.6937700" lon="8.3442600">
<time>2017-08-08T14:24:24.807Z</time>
</trkpt>
<trkpt lat="45.6937600" lon="8.3443700">
<time>2017-08-08T14:24:24.807Z</time>
</trkpt>
<trkpt lat="45.6935400" lon="8.3447400">
<time>2017-08-08T14:24:24.807Z</time>
</trkpt>
<trkpt lat="45.6932600" lon="8.3449200">
<time>2017-08-08T14:24:24.807Z</time>
</trkpt>
<trkpt lat="45.6930700" lon="8.3449700">
<time>2017-08-08T14:24:24.808Z</time>
</trkpt>
<trkpt lat="45.6924500" lon="8.3448700">
<time>2017-08-08T14:24:24.808Z</time>
</trkpt>
<trkpt lat="45.6918500" lon="8.3451900">
<time>2017-08-08T14:24:24.808Z</time>
</trkpt>
<trkpt lat="45.6914600" lon="8.3454100">
<time>2017-08-08T14:24:24.808Z</time>
</trkpt>
<trkpt lat="45.6912700" lon="8.3455100">
<time>2017-08-08T14:24:24.808Z</time>
</trkpt>
<trkpt lat="45.6905600" lon="8.3459100">
<time>2017-08-08T14:24:24.808Z</time>
</trkpt>
<trkpt lat="45.6900900" lon="8.3461300">
<time>2017-08-08T14:24:24.808Z</time>
</trkpt>
<trkpt lat="45.6894500" lon="8.3463100">
<time>2017-08-08T14:24:24.808Z</time>
</trkpt>
<trkpt lat="45.6892200" lon="8.3464100">
<time>2017-08-08T14:24:24.808Z</time>
</trkpt>
<trkpt lat="45.6885500" lon="8.3470100">
<time>2017-08-08T14:24:24.808Z</time>
</trkpt>
<trkpt lat="45.6878900" lon="8.3476400">
<time>2017-08-08T14:24:24.809Z</time>
</trkpt>
<trkpt lat="45.6872200" lon="8.3482800">
<time>2017-08-08T14:24:24.809Z</time>
</trkpt>
<trkpt lat="45.6865600" lon="8.3489100">
<time>2017-08-08T14:24:24.809Z</time>
</trkpt>
<trkpt lat="45.6859900" lon="8.3494100">
<time>2017-08-08T14:24:24.809Z</time>
</trkpt>
<trkpt lat="45.6856900" lon="8.3494700">
<time>2017-08-08T14:24:24.809Z</time>
</trkpt>
<trkpt lat="45.6850600" lon="8.3494100">
<time>2017-08-08T14:24:24.809Z</time>
</trkpt>
<trkpt lat="45.6847200" lon="8.3496200">
<time>2017-08-08T14:24:24.809Z</time>
</trkpt>
<trkpt lat="45.6839900" lon="8.3500500">
<time>2017-08-08T14:24:24.809Z</time>
</trkpt>
<trkpt lat="45.6836300" lon="8.3503700">
<time>2017-08-08T14:24:24.809Z</time>
</trkpt>
<trkpt lat="45.6829900" lon="8.3514200">
<time>2017-08-08T14:24:24.809Z</time>
</trkpt>
<trkpt lat="45.6828000" lon="8.3516500">
<time>2017-08-08T14:24:24.809Z</time>
</trkpt>
<trkpt lat="45.6822700" lon="8.3519100">
<time>2017-08-08T14:24:24.810Z</time>
</trkpt>
<trkpt lat="45.6822500" lon="8.3519200">
<time>2017-08-08T14:24:24.810Z</time>
</trkpt>
<trkpt lat="45.6823300" lon="8.3524400">
<time>2017-08-08T14:24:24.810Z</time>
</trkpt>
<trkpt lat="45.6824800" lon="8.3528300">
<time>2017-08-08T14:24:24.810Z</time>
</trkpt>
<trkpt lat="45.6828800" lon="8.3534000">
<time>2017-08-08T14:24:24.810Z</time>
</trkpt>
<trkpt lat="45.6827400" lon="8.3536400">
<time>2017-08-08T14:24:24.810Z</time>
</trkpt>
<trkpt lat="45.6827100" lon="8.3540100">
<time>2017-08-08T14:24:24.810Z</time>
</trkpt>
<trkpt lat="45.6827700" lon="8.3543400">
<time>2017-08-08T14:24:24.810Z</time>
</trkpt>
<trkpt lat="45.6828100" lon="8.3546600">
<time>2017-08-08T14:24:24.810Z</time>
</trkpt>
<trkpt lat="45.6828300" lon="8.3548300">
<time>2017-08-08T14:24:24.810Z</time>
</trkpt>
<trkpt lat="45.6828900" lon="8.3551800">
<time>2017-08-08T14:24:24.811Z</time>
</trkpt>
<trkpt lat="45.6829200" lon="8.3555800">
<time>2017-08-08T14:24:24.811Z</time>
</trkpt>
<trkpt lat="45.6828400" lon="8.3557900">
<time>2017-08-08T14:24:24.811Z</time>
</trkpt>
<trkpt lat="45.6827800" lon="8.3560100">
<time>2017-08-08T14:24:24.811Z</time>
</trkpt>
<trkpt lat="45.6827300" lon="8.3561900">
<time>2017-08-08T14:24:24.811Z</time>
</trkpt>
<trkpt lat="45.6827100" lon="8.3562800">
<time>2017-08-08T14:24:24.811Z</time>
</trkpt>
<trkpt lat="45.6827300" lon="8.3563300">
<time>2017-08-08T14:24:24.811Z</time>
</trkpt>
<trkpt lat="45.6827000" lon="8.3566800">
<time>2017-08-08T14:24:24.811Z</time>
</trkpt>
<trkpt lat="45.6826400" lon="8.3567500">
<time>2017-08-08T14:24:24.811Z</time>
</trkpt>
<trkpt lat="45.6826200" lon="8.3568700">
<time>2017-08-08T14:24:24.811Z</time>
</trkpt>
<trkpt lat="45.6826000" lon="8.3569600">
<time>2017-08-08T14:24:24.812Z</time>
</trkpt>
<trkpt lat="45.6825800" lon="8.3571700">
<time>2017-08-08T14:24:24.812Z</time>
</trkpt>
<trkpt lat="45.6825500" lon="8.3572100">
<time>2017-08-08T14:24:24.812Z</time>
</trkpt>
<trkpt lat="45.6825500" lon="8.3572800">
<time>2017-08-08T14:24:24.812Z</time>
</trkpt>
<trkpt lat="45.6826500" lon="8.3575500">
<time>2017-08-08T14:24:24.812Z</time>
</trkpt>
<trkpt lat="45.6826800" lon="8.3578700">
<time>2017-08-08T14:24:24.812Z</time>
</trkpt>
<trkpt lat="45.6826900" lon="8.3581100">
<time>2017-08-08T14:24:24.812Z</time>
</trkpt>
<trkpt lat="45.6827100" lon="8.3581800">
<time>2017-08-08T14:24:24.812Z</time>
</trkpt>
<trkpt lat="45.6827900" lon="8.3585200">
<time>2017-08-08T14:24:24.813Z</time>
</trkpt>
<trkpt lat="45.6828100" lon="8.3586300">
<time>2017-08-08T14:24:24.813Z</time>
</trkpt>
<trkpt lat="45.6828000" lon="8.3587600">
<time>2017-08-08T14:24:24.813Z</time>
</trkpt>
<trkpt lat="45.6828000" lon="8.3587600">
<time>2017-08-08T14:24:24.813Z</time>
</trkpt>
<trkpt lat="45.6827700" lon="8.3588300">
<time>2017-08-08T14:24:24.813Z</time>
</trkpt>
<trkpt lat="45.6827200" lon="8.3589500">
<time>2017-08-08T14:24:24.813Z</time>
</trkpt>
<trkpt lat="45.6827100" lon="8.3590100">
<time>2017-08-08T14:24:24.813Z</time>
</trkpt>
<trkpt lat="45.6825900" lon="8.3591900">
<time>2017-08-08T14:24:24.813Z</time>
</trkpt>
<trkpt lat="45.6825200" lon="8.3592300">
<time>2017-08-08T14:24:24.813Z</time>
</trkpt>
<trkpt lat="45.6825000" lon="8.3592500">
<time>2017-08-08T14:24:24.813Z</time>
</trkpt>
<trkpt lat="45.6823800" lon="8.3594200">
<time>2017-08-08T14:24:24.813Z</time>
</trkpt>
<trkpt lat="45.6822200" lon="8.3596500">
<time>2017-08-08T14:24:24.814Z</time>
</trkpt>
<trkpt lat="45.6820600" lon="8.3598800">
<time>2017-08-08T14:24:24.814Z</time>
</trkpt>
<trkpt lat="45.6819600" lon="8.3600600">
<time>2017-08-08T14:24:24.814Z</time>
</trkpt>
<trkpt lat="45.6818500" lon="8.3602300">
<time>2017-08-08T14:24:24.814Z</time>
</trkpt>
<trkpt lat="45.6817800" lon="8.3603600">
<time>2017-08-08T14:24:24.814Z</time>
</trkpt>
<trkpt lat="45.6817000" lon="8.3605600">
<time>2017-08-08T14:24:24.814Z</time>
</trkpt>
<trkpt lat="45.6816200" lon="8.3607900">
<time>2017-08-08T14:24:24.814Z</time>
</trkpt>
<trkpt lat="45.6815500" lon="8.3610200">
<time>2017-08-08T14:24:24.814Z</time>
</trkpt>
<trkpt lat="45.6815200" lon="8.3612400">
<time>2017-08-08T14:24:24.814Z</time>
</trkpt>
<trkpt lat="45.6814300" lon="8.3614300">
<time>2017-08-08T14:24:24.814Z</time>
</trkpt>
<trkpt lat="45.6813700" lon="8.3615900">
<time>2017-08-08T14:24:24.815Z</time>
</trkpt>
<trkpt lat="45.6813300" lon="8.3618100">
<time>2017-08-08T14:24:24.815Z</time>
</trkpt>
<trkpt lat="45.6812400" lon="8.3621200">
<time>2017-08-08T14:24:24.815Z</time>
</trkpt>
<trkpt lat="45.6812100" lon="8.3621800">
<time>2017-08-08T14:24:24.815Z</time>
</trkpt>
<trkpt lat="45.6811300" lon="8.3623300">
<time>2017-08-08T14:24:24.815Z</time>
</trkpt>
<trkpt lat="45.6810700" lon="8.3624100">
<time>2017-08-08T14:24:24.815Z</time>
</trkpt>
<trkpt lat="45.6810000" lon="8.3624900">
<time>2017-08-08T14:24:24.815Z</time>
</trkpt>
<trkpt lat="45.6809600" lon="8.3626100">
<time>2017-08-08T14:24:24.815Z</time>
</trkpt>
<trkpt lat="45.6810100" lon="8.3628100">
<time>2017-08-08T14:24:24.815Z</time>
</trkpt>
<trkpt lat="45.6810800" lon="8.3629100">
<time>2017-08-08T14:24:24.815Z</time>
</trkpt>
<trkpt lat="45.6810800" lon="8.3629400">
<time>2017-08-08T14:24:24.815Z</time>
</trkpt>
<trkpt lat="45.6810800" lon="8.3629500">
<time>2017-08-08T14:24:24.816Z</time>
</trkpt>
<trkpt lat="45.6811000" lon="8.3629600">
<time>2017-08-08T14:24:24.816Z</time>
</trkpt>
<trkpt lat="45.6811300" lon="8.3630400">
<time>2017-08-08T14:24:24.816Z</time>
</trkpt>
<trkpt lat="45.6811200" lon="8.3630600">
<time>2017-08-08T14:24:24.816Z</time>
</trkpt>
<trkpt lat="45.6811800" lon="8.3632100">
<time>2017-08-08T14:24:24.816Z</time>
</trkpt>
<trkpt lat="45.6812500" lon="8.3632500">
<time>2017-08-08T14:24:24.816Z</time>
</trkpt>
<trkpt lat="45.6814100" lon="8.3633000">
<time>2017-08-08T14:24:24.816Z</time>
</trkpt>
<trkpt lat="45.6814700" lon="8.3632900">
<time>2017-08-08T14:24:24.816Z</time>
</trkpt>
<trkpt lat="45.6816200" lon="8.3633200">
<time>2017-08-08T14:24:24.816Z</time>
</trkpt>
<trkpt lat="45.6817700" lon="8.3634100">
<time>2017-08-08T14:24:24.816Z</time>
</trkpt>
<trkpt lat="45.6819000" lon="8.3635300">
<time>2017-08-08T14:24:24.817Z</time>
</trkpt>
<trkpt lat="45.6820000" lon="8.3635600">
<time>2017-08-08T14:24:24.817Z</time>
</trkpt>
<trkpt lat="45.6821300" lon="8.3635600">
<time>2017-08-08T14:24:24.817Z</time>
</trkpt>
<trkpt lat="45.6821400" lon="8.3635500">
<time>2017-08-08T14:24:24.817Z</time>
</trkpt>
<trkpt lat="45.6823000" lon="8.3635000">
<time>2017-08-08T14:24:24.817Z</time>
</trkpt>
<trkpt lat="45.6824200" lon="8.3634800">
<time>2017-08-08T14:24:24.817Z</time>
</trkpt>
<trkpt lat="45.6824800" lon="8.3635400">
<time>2017-08-08T14:24:24.817Z</time>
</trkpt>
<trkpt lat="45.6825200" lon="8.3637200">
<time>2017-08-08T14:24:24.817Z</time>
</trkpt>
<trkpt lat="45.6825200" lon="8.3639700">
<time>2017-08-08T14:24:24.817Z</time>
</trkpt>
<trkpt lat="45.6825600" lon="8.3641400">
<time>2017-08-08T14:24:24.817Z</time>
</trkpt>
<trkpt lat="45.6826200" lon="8.3642700">
<time>2017-08-08T14:24:24.817Z</time>
</trkpt>
<trkpt lat="45.6827500" lon="8.3644300">
<time>2017-08-08T14:24:24.818Z</time>
</trkpt>
<trkpt lat="45.6827500" lon="8.3644300">
<time>2017-08-08T14:24:24.818Z</time>
</trkpt>
<trkpt lat="45.6827800" lon="8.3645300">
<time>2017-08-08T14:24:24.818Z</time>
</trkpt>
<trkpt lat="45.6829200" lon="8.3646300">
<time>2017-08-08T14:24:24.818Z</time>
</trkpt>
<trkpt lat="45.6829500" lon="8.3646100">
<time>2017-08-08T14:24:24.818Z</time>
</trkpt>
<trkpt lat="45.6830400" lon="8.3646400">
<time>2017-08-08T14:24:24.818Z</time>
</trkpt>
<trkpt lat="45.6832500" lon="8.3646800">
<time>2017-08-08T14:24:24.818Z</time>
</trkpt>
<trkpt lat="45.6833000" lon="8.3646900">
<time>2017-08-08T14:24:24.818Z</time>
</trkpt>
<trkpt lat="45.6833900" lon="8.3647100">
<time>2017-08-08T14:24:24.818Z</time>
</trkpt>
<trkpt lat="45.6835400" lon="8.3647600">
<time>2017-08-08T14:24:24.818Z</time>
</trkpt>
<trkpt lat="45.6836600" lon="8.3648000">
<time>2017-08-08T14:24:24.819Z</time>
</trkpt>
<trkpt lat="45.6837900" lon="8.3648600">
<time>2017-08-08T14:24:24.819Z</time>
</trkpt>
<trkpt lat="45.6839100" lon="8.3649100">
<time>2017-08-08T14:24:24.819Z</time>
</trkpt>
<trkpt lat="45.6839700" lon="8.3649200">
<time>2017-08-08T14:24:24.819Z</time>
</trkpt>
<trkpt lat="45.6840800" lon="8.3649300">
<time>2017-08-08T14:24:24.819Z</time>
</trkpt>
<trkpt lat="45.6842100" lon="8.3649400">
<time>2017-08-08T14:24:24.819Z</time>
</trkpt>
<trkpt lat="45.6843100" lon="8.3649900">
<time>2017-08-08T14:24:24.819Z</time>
</trkpt>
<trkpt lat="45.6845300" lon="8.3651300">
<time>2017-08-08T14:24:24.819Z</time>
</trkpt>
<trkpt lat="45.6846600" lon="8.3653200">
<time>2017-08-08T14:24:24.819Z</time>
</trkpt>
<trkpt lat="45.6847800" lon="8.3654200">
<time>2017-08-08T14:24:24.819Z</time>
</trkpt>
<trkpt lat="45.6849800" lon="8.3655800">
<time>2017-08-08T14:24:24.819Z</time>
</trkpt>
<trkpt lat="45.6853900" lon="8.3657400">
<time>2017-08-08T14:24:24.820Z</time>
</trkpt>
<trkpt lat="45.6855900" lon="8.3660600">
<time>2017-08-08T14:24:24.820Z</time>
</trkpt>
<trkpt lat="45.6852700" lon="8.3663000">
<time>2017-08-08T14:24:24.820Z</time>
</trkpt>
<trkpt lat="45.6851000" lon="8.3663200">
<time>2017-08-08T14:24:24.820Z</time>
</trkpt>
<trkpt lat="45.6847500" lon="8.3666800">
<time>2017-08-08T14:24:24.820Z</time>
</trkpt>
<trkpt lat="45.6847000" lon="8.3667700">
<time>2017-08-08T14:24:24.820Z</time>
</trkpt>
<trkpt lat="45.6846100" lon="8.3669500">
<time>2017-08-08T14:24:24.820Z</time>
</trkpt>
<trkpt lat="45.6843700" lon="8.3671600">
<time>2017-08-08T14:24:24.820Z</time>
</trkpt>
<trkpt lat="45.6842000" lon="8.3677300">
<time>2017-08-08T14:24:24.820Z</time>
</trkpt>
<trkpt lat="45.6845100" lon="8.3680100">
<time>2017-08-08T14:24:24.820Z</time>
</trkpt>
<trkpt lat="45.6848100" lon="8.3677700">
<time>2017-08-08T14:24:24.821Z</time>
</trkpt>
<trkpt lat="45.6848900" lon="8.3676800">
<time>2017-08-08T14:24:24.821Z</time>
</trkpt>
<trkpt lat="45.6850600" lon="8.3675100">
<time>2017-08-08T14:24:24.821Z</time>
</trkpt>
<trkpt lat="45.6853100" lon="8.3673000">
<time>2017-08-08T14:24:24.821Z</time>
</trkpt>
<trkpt lat="45.6854000" lon="8.3672400">
<time>2017-08-08T14:24:24.821Z</time>
</trkpt>
<trkpt lat="45.6860600" lon="8.3673600">
<time>2017-08-08T14:24:24.821Z</time>
</trkpt>
<trkpt lat="45.6861700" lon="8.3676100">
<time>2017-08-08T14:24:24.821Z</time>
</trkpt>
<trkpt lat="45.6864800" lon="8.3680500">
<time>2017-08-08T14:24:24.821Z</time>
</trkpt>
<trkpt lat="45.6867400" lon="8.3682900">
<time>2017-08-08T14:24:24.821Z</time>
</trkpt>
<trkpt lat="45.6867700" lon="8.3686100">
<time>2017-08-08T14:24:24.821Z</time>
</trkpt>
<trkpt lat="45.6865800" lon="8.3687500">
<time>2017-08-08T14:24:24.821Z</time>
</trkpt>
<trkpt lat="45.6864100" lon="8.3690900">
<time>2017-08-08T14:24:24.822Z</time>
</trkpt>
<trkpt lat="45.6862100" lon="8.3694800">
<time>2017-08-08T14:24:24.822Z</time>
</trkpt>
<trkpt lat="45.6861200" lon="8.3699100">
<time>2017-08-08T14:24:24.822Z</time>
</trkpt>
<trkpt lat="45.6861500" lon="8.3700300">
<time>2017-08-08T14:24:24.822Z</time>
</trkpt>
<trkpt lat="45.6862700" lon="8.3708700">
<time>2017-08-08T14:24:24.822Z</time>
</trkpt>
<trkpt lat="45.6862100" lon="8.3717100">
<time>2017-08-08T14:24:24.822Z</time>
</trkpt>
<trkpt lat="45.6862400" lon="8.3723500">
<time>2017-08-08T14:24:24.822Z</time>
</trkpt>
<trkpt lat="45.6863300" lon="8.3726300">
<time>2017-08-08T14:24:24.822Z</time>
</trkpt>
<trkpt lat="45.6863400" lon="8.3732200">
<time>2017-08-08T14:24:24.823Z</time>
</trkpt>
<trkpt lat="45.6862100" lon="8.3733700">
<time>2017-08-08T14:24:24.823Z</time>
</trkpt>
<trkpt lat="45.6861000" lon="8.3740500">
<time>2017-08-08T14:24:24.823Z</time>
</trkpt>
<trkpt lat="45.6865000" lon="8.3744400">
<time>2017-08-08T14:24:24.823Z</time>
</trkpt>
<trkpt lat="45.6862800" lon="8.3747800">
<time>2017-08-08T14:24:24.823Z</time>
</trkpt>
<trkpt lat="45.6860100" lon="8.3748600">
<time>2017-08-08T14:24:24.823Z</time>
</trkpt>
<trkpt lat="45.6858500" lon="8.3752700">
<time>2017-08-08T14:24:24.823Z</time>
</trkpt>
<trkpt lat="45.6859500" lon="8.3754700">
<time>2017-08-08T14:24:24.823Z</time>
</trkpt>
<trkpt lat="45.6861000" lon="8.3758100">
<time>2017-08-08T14:24:24.823Z</time>
</trkpt>
<trkpt lat="45.6861600" lon="8.3759200">
<time>2017-08-08T14:24:24.823Z</time>
</trkpt>
<trkpt lat="45.6863800" lon="8.3763100">
<time>2017-08-08T14:24:24.823Z</time>
</trkpt>
<trkpt lat="45.6864700" lon="8.3763200">
<time>2017-08-08T14:24:24.824Z</time>
</trkpt>
<trkpt lat="45.6870500" lon="8.3768100">
<time>2017-08-08T14:24:24.824Z</time>
</trkpt>
<trkpt lat="45.6873500" lon="8.3773900">
<time>2017-08-08T14:24:24.824Z</time>
</trkpt>
<trkpt lat="45.6873800" lon="8.3781000">
<time>2017-08-08T14:24:24.824Z</time>
</trkpt>
<trkpt lat="45.6875500" lon="8.3788800">
<time>2017-08-08T14:24:24.824Z</time>
</trkpt>
<trkpt lat="45.6876300" lon="8.3789300">
<time>2017-08-08T14:24:24.824Z</time>
</trkpt>
<trkpt lat="45.6878500" lon="8.3793600">
<time>2017-08-08T14:24:24.824Z</time>
</trkpt>
<trkpt lat="45.6878500" lon="8.3794800">
<time>2017-08-08T14:24:24.824Z</time>
</trkpt>
<trkpt lat="45.6876300" lon="8.3809700">
<time>2017-08-08T14:24:24.824Z</time>
</trkpt>
<trkpt lat="45.6876000" lon="8.3811000">
<time>2017-08-08T14:24:24.824Z</time>
</trkpt>
<trkpt lat="45.6877700" lon="8.3817700">
<time>2017-08-08T14:24:24.825Z</time>
</trkpt>
<trkpt lat="45.6880600" lon="8.3819200">
<time>2017-08-08T14:24:24.825Z</time>
</trkpt>
<trkpt lat="45.6883400" lon="8.3815300">
<time>2017-08-08T14:24:24.825Z</time>
</trkpt>
<trkpt lat="45.6884100" lon="8.3814200">
<time>2017-08-08T14:24:24.825Z</time>
</trkpt>
<trkpt lat="45.6888100" lon="8.3815600">
<time>2017-08-08T14:24:24.825Z</time>
</trkpt>
<trkpt lat="45.6889200" lon="8.3818500">
<time>2017-08-08T14:24:24.825Z</time>
</trkpt>
<trkpt lat="45.6887900" lon="8.3824200">
<time>2017-08-08T14:24:24.825Z</time>
</trkpt>
<trkpt lat="45.6885800" lon="8.3827600">
<time>2017-08-08T14:24:24.825Z</time>
</trkpt>
<trkpt lat="45.6882900" lon="8.3832400">
<time>2017-08-08T14:24:24.825Z</time>
</trkpt>
<trkpt lat="45.6880300" lon="8.3837100">
<time>2017-08-08T14:24:24.825Z</time>
</trkpt>
<trkpt lat="45.6879400" lon="8.3839500">
<time>2017-08-08T14:24:24.825Z</time>
</trkpt>
<trkpt lat="45.6877500" lon="8.3846400">
<time>2017-08-08T14:24:24.826Z</time>
</trkpt>
<trkpt lat="45.6876300" lon="8.3852800">
<time>2017-08-08T14:24:24.826Z</time>
</trkpt>
<trkpt lat="45.6876000" lon="8.3854500">
<time>2017-08-08T14:24:24.826Z</time>
</trkpt>
<trkpt lat="45.6875000" lon="8.3859500">
<time>2017-08-08T14:24:24.826Z</time>
</trkpt>
<trkpt lat="45.6874000" lon="8.3864400">
<time>2017-08-08T14:24:24.826Z</time>
</trkpt>
<trkpt lat="45.6873100" lon="8.3869200">
<time>2017-08-08T14:24:24.826Z</time>
</trkpt>
<trkpt lat="45.6872700" lon="8.3878900">
<time>2017-08-08T14:24:24.826Z</time>
</trkpt>
<trkpt lat="45.6873100" lon="8.3883600">
<time>2017-08-08T14:24:24.826Z</time>
</trkpt>
<trkpt lat="45.6873300" lon="8.3885100">
<time>2017-08-08T14:24:24.826Z</time>
</trkpt>
<trkpt lat="45.6871500" lon="8.3889800">
<time>2017-08-08T14:24:24.826Z</time>
</trkpt>
<trkpt lat="45.6867400" lon="8.3896200">
<time>2017-08-08T14:24:24.827Z</time>
</trkpt>
</trkseg>
</trk>
</gpx>
